CW2939 Weather Reports


time (UTC)temp
F
wind
direction
speed
knots
gust
knots
rain 1hr
in
rain 24hr
in
rain mn
in
humidity
%
barometer
mb
20260510234405 59 0 4.3 7.0 0.00 0.00 0.00 76 1015.3
20260510230904 59 359 4.3 8.7 0.00 0.00 0.00 76 1015.9
20260510224904 60 357 4.3 4.3 0.00 0.00 0.00 79 1015.6
20260510224404 60 356 2.6 4.3 0.00 0.00 0.00 78 1015.8
20260510221905 60 0 3.5 5.2 0.00 0.00 0.00 79 1016.1
20260510221405 60 0 4.3 5.2 0.00 0.00 0.00 79 1015.8
20260510211905 60 272 2.6 2.6 0.00 0.00 0.00 83 1016.0
20260510211405 60 249 2.6 7.0 0.00 0.00 0.00 83 1016.1
20260510210905 61 259 3.5 6.1 0.00 0.00 0.00 83 1015.9
20260510204405 61 293 2.6 5.2 0.00 0.00 0.00 79 1015.8
20260510203904 62 305 2.6 2.6 0.00 0.00 0.00 79 1015.7
20260510203405 62 316 0.9 2.6 0.00 0.00 0.00 78 1015.6
20260510200405 62 287 0.0 2.6 0.00 0.00 0.00 78 1015.1
20260510194904 63 147 0.0 0.0 0.00 0.00 0.00 74 1015.1
20260510194404 63 148 0.0 0.0 0.00 0.00 0.00 73 1015.2
20260510193905 63 139 0.0 0.0 0.00 0.00 0.00 72 1015.0
20260510190904 63 125 6.1 7.8 0.00 0.00 0.00 74 1015.2
20260510184904 64 120 2.6 6.1 0.00 0.00 0.00 73 1015.1
20260510181905 64 98 1.7 6.1 0.00 0.00 0.00 71 1015.0
20260510180405 64 97 6.1 8.7 0.00 0.00 0.00 70 1015.0
20260510173904 66 68 0.9 2.6 0.00 0.00 0.00 68 1014.7
20260510173404 66 129 1.7 6.1 0.00 0.00 0.00 68 1014.8
20260510171905 66 106 3.5 7.8 0.00 0.00 0.00 66 1014.9
20260510171404 66 131 4.3 7.8 0.00 0.00 0.00 66 1014.9
20260510170405 67 119 1.7 6.1 0.00 0.00 0.00 64 1014.8
20260510164904 66 144 2.6 8.7 0.00 0.03 0.00 62 1014.9
20260510164404 67 112 2.6 8.7 0.00 0.04 0.00 62 1014.9
20260510161405 66 104 3.5 10.4 0.00 0.06 0.00 62 1014.6
20260510160904 66 123 4.3 17.4 0.00 0.06 0.00 61 1014.6
20260510154904 65 93 6.1 10.4 0.00 0.12 0.00 66 1014.8
20260510153904 65 116 10.4 12.2 0.00 0.13 0.00 67 1014.8
20260510151405 65 101 6.1 11.3 0.00 0.16 0.00 67 1015.2
20260510150904 65 107 7.8 10.4 0.00 0.17 0.00 67 1015.1
20260510150404 65 108 6.1 12.2 0.00 0.17 0.00 67 1015.3
20260510144405 66 164 4.3 11.3 0.00 0.17 0.00 65 1015.4
20260510143405 65 113 7.0 13.0 0.00 0.17 0.00 68 1015.5
20260510141404 64 97 7.8 12.2 0.00 0.17 0.00 69 1015.7
20260510140405 65 166 1.7 12.2 0.00 0.17 0.00 70 1016.0
20260510134404 63 135 5.2 11.3 0.00 0.17 0.00 68 1016.2
20260510133904 64 125 5.2 13.0 0.00 0.17 0.00 68 1016.3
20260510131904 66 148 6.1 10.4 0.00 0.17 0.00 62 1015.9
20260510130904 66 173 2.6 7.0 0.00 0.17 0.00 62 1015.9
20260510130404 66 350 2.6 11.3 0.00 0.17 0.00 63 1015.8
20260510124905 65 63 2.6 10.4 0.00 0.17 0.00 62 1015.8
20260510123404 66 145 7.8 17.4 0.00 0.17 0.00 61 1015.7
20260510121905 67 152 4.3 10.4 0.00 0.17 0.00 58 1015.7
20260510121404 67 122 7.0 13.9 0.00 0.17 0.00 59 1015.5
20260510120904 67 176 5.2 13.9 0.00 0.17 0.00 59 1015.8
20260510120404 67 124 4.3 15.6 0.00 0.17 0.00 60 1015.8
20260510114904 66 163 6.1 17.4 0.00 0.17 0.00 60 1016.1
20260510114404 66 143 6.1 13.9 0.00 0.17 0.00 59 1016.2
20260510113904 67 139 7.8 12.2 0.00 0.17 0.00 58 1016.0
20260510113405 67 246 2.6 13.0 0.00 0.17 0.00 58 1016.1
20260510110404 67 88 2.6 12.2 0.00 0.17 0.00 62 1016.0
20260510104904 67 99 7.8 12.2 0.00 0.17 0.00 63 1016.0
20260510103404 67 85 3.5 13.0 0.00 0.17 0.00 64 1016.4
20260510101904 66 90 5.2 10.4 0.00 0.17 0.00 67 1016.5
20260510100905 65 88 5.2 7.8 0.00 0.17 0.00 71 1016.3
20260510100404 64 127 4.3 8.7 0.00 0.17 0.00 73 1016.4
20260510094404 63 177 2.6 7.8 0.00 0.17 0.00 71 1016.5
20260510091905 64 125 0.9 4.3 0.00 0.17 0.00 71 1016.2
20260510091405 64 109 5.2 8.7 0.00 0.17 0.00 70 1016.4
20260510090904 64 109 6.1 8.7 0.00 0.17 0.00 70 1016.3
20260510084904 64 121 5.2 12.2 0.00 0.17 0.00 71 1016.1
20260510084405 64 134 4.3 8.7 0.00 0.17 0.00 71 1016.1
20260510083904 63 95 3.5 6.1 0.00 0.17 0.00 71 1016.1
20260510083404 63 141 2.6 7.0 0.00 0.17 0.00 75 1016.2
20260510081905 62 102 1.7 5.2 0.00 0.17 0.00 76 1016.2
20260510081404 61 94 2.6 7.8 0.00 0.17 0.00 76 1016.1
20260510080905 61 100 0.9 2.6 0.00 0.17 0.00 77 1016.1
20260510074904 60 100 1.7 2.6 0.00 0.17 0.00 77 1016.0
20260510073905 60 95 3.5 5.2 0.00 0.17 0.00 80 1016.0
20260510073404 60 129 0.9 6.1 0.00 0.17 0.00 86 1015.9
20260510071904 58 74 1.7 2.6 0.00 0.17 0.00 86 1015.7
20260510071404 58 238 1.7 2.6 0.00 0.17 0.00 85 1015.7
20260510070905 58 120 2.6 6.1 0.00 0.17 0.00 82 1015.9
20260510070404 57 114 5.2 8.7 0.00 0.17 0.00 85 1015.8
20260510064405 55 72 2.6 2.6 0.00 0.17 0.00 93 1015.9
20260510063904 55 94 1.7 2.6 0.00 0.17 0.00 93 1016.1
20260510063404 55 109 2.6 5.2 0.00 0.17 0.00 94 1015.9
20260510061404 55 306 0.9 1.7 0.00 0.17 0.00 94 1015.6
20260510060905 55 219 1.7 2.6 0.00 0.17 0.00 94 1015.7
20260510054404 55 241 0.9 2.6 0.00 0.17 0.00 94 1015.4
20260510053904 55 248 1.7 2.6 0.00 0.17 0.00 94 1015.4
20260510051404 55 278 0.0 0.0 0.00 0.17 0.00 94 1015.2
20260510050904 54 271 0.0 0.0 0.00 0.17 0.00 94 1015.2
20260510044904 55 246 0.0 0.0 0.00 0.17 0.00 94 1015.1
20260510043905 55 246 0.9 1.7 0.00 0.17 0.00 94 1015.1
20260510041905 55 246 0.0 1.7 0.00 0.17 0.00 93 1015.1
20260510040904 55 246 0.9 2.6 0.00 0.17 0.00 94 1015.2
20260510040404 55 246 1.7 2.6 0.00 0.17 0.00 93 1015.1
20260510034404 54 274 1.7 2.6 0.00 0.18 0.00 92 1015.2
20260510031904 54 280 1.7 2.6 0.00 0.18 0.00 93 1015.3
20260510030905 54 263 0.0 0.9 0.00 0.18 0.00 93 1015.3
20260510024404 53 67 0.0 2.6 0.00 0.18 0.00 92 1015.4
20260510023404 55 42 0.9 2.6 0.00 0.18 0.00 93 1015.4
20260510021905 54 238 1.7 2.6 0.00 0.18 0.00 93 1015.4
20260510020904 54 262 2.6 2.6 0.00 0.18 0.00 93 1015.4
20260510014904 55 47 0.9 1.7 0.00 0.18 0.00 92 1015.4
20260510011404 55 34 0.0 0.0 0.00 0.18 0.00 93 1015.7
20260510010404 55 34 0.0 0.0 0.00 0.18 0.00 92 1015.7
20260510000904 55 239 0.9 2.6 0.00 0.18 0.00 92 1015.9
20260510000404 55 238 2.6 5.2 0.00 0.18 0.00 92 1015.9
20260509234904 55 245 2.6 4.3 0.00 0.18 0.00 91 1015.9